Вернуться в каталог

CZ-6A DEB

АктивенSSO
NORAD 56262·DEBRIS·🇨🇳 China

Запущен Nov 11, 2022 с Taiyuan Satellite Launch Center

Loading…

Ближайшие Пролёты (ближайшие 24 часа)

TLE

СвежийSource: Space-Track

Эпоха: Sep 14, 2026, 11:59 UTC

1 56262U 22151ACE 26257.49959356  .00001414  00000-0  71677-3 0  9995
2 56262  98.8395 264.4019 0046533  45.9646 314.5347 14.17078225185857

Отслеживайте CZ-6A DEB в реальном времени с AllMySat

Download on the App Store